Погода в Курталане

Турция     37°55′33″N   41°41′59″E
темп.,
°C
ветер,
м/с
пор.,
м/с
влажн.,
%
обл.,
%
осадки,
мм/ч
давл.,
гПа
погр.,
м
13 июня, вс
вс1300:00+21всв22330 0.0 100911
03:00+19всв11360 0.0 100811
06:00+20в11390 0.0 100811
09:00+26ююв22270 0.0 1008861
12:00+30юз43180 0.0 10072769
15:00+31зюз35174 0.0 10063256
18:00+30ю332186 0.0 10061520
21:00+25вюв112773 0.0 100811
14 июня, пн
пн1400:00+22в22301 0.0 100811
03:00+20всв22310 0.0 100811
06:00+21всв22340 0.0 100914
09:00+28ююв24190 0.0 1008888
12:00+33юз68110 0.0 10083012
15:00+34юз68130 0.0 10063074
18:00+32ююз24150 0.0 10051098
21:00+26с11210 0.0 100611
15 июня, вт
вт1500:00+23с11233 0.0 100611
03:00+21св11250 0.0 100611
06:00+22св00280 0.0 100711
09:00+29юв11190 0.0 1006491
12:00+34юз35140 0.0 10042033
15:00+36юз57110 0.0 10023904
18:00+34юз46120 0.0 1002451
21:00+26зсз12160 0.0 100411
16 июня, ср
ср1600:00+24зюз12170 0.0 100511
03:00+21з11190 0.0 100611
06:00+21зсз11250 0.0 100711
09:00+28зюз21160 0.0 1006610
12:00+33юз33120 0.0 10051581
15:00+35юз4480 0.0 10032215
18:00+34з23100 0.0 1003193
21:00+25зсз11160 0.0 100611
17 июня, чт
чт1700:00+23з22160 0.0 100711
03:00+20сз11230 0.0 100811
06:00+20с11280 0.0 100811
09:00+26ю11220 0.0 1007604
12:00+32юз44120 0.0 10061696
15:00+34зюз44100 0.0 10042164
18:00+32зсз55120 0.0 1004809
21:00+25сз11170 0.0 100611